E24CR-1 Weather Reports


Display with metric or nautical units.
time (UTC)temp
F
wind
direction
speed
MPH
gust
MPH
rain 1hr
in
rain 24hr
in
rain mn
in
humidity
%
barometer
mb
20260506072931 101 0 0.0 0.0 0.00 0.00 0.00 33 948.0
20260506071907 101 0 0.0 0.0 0.00 0.00 0.00 32 949.0
20260506070843 102 0 0.0 0.0 0.00 0.00 0.00 33 949.0
20260506061642 100 0 0.0 0.0 0.00 0.00 0.00 35 950.0
20260506060618 99 0 0.0 0.0 0.00 0.00 0.00 35 951.0
20260506051411 101 0 0.0 0.0 0.00 0.00 0.00 36 951.0
20260506050345 98 0 0.0 0.0 0.00 0.00 0.00 41 951.0
20260506044255 98 0 0.0 0.0 0.00 0.00 0.00 40 952.0
20260506043231 98 0 0.0 0.0 0.00 0.00 0.00 42 952.0
20260506042207 99 0 0.0 0.0 0.00 0.00 0.00 42 952.0
20260506041143 97 0 0.0 0.0 0.00 0.00 0.00 43 952.0
20260506040118 94 0 0.0 0.0 0.00 0.00 0.00 46 952.0
20260506035054 96 0 0.0 0.0 0.00 0.00 0.00 45 952.0
20260506034030 96 0 0.0 0.0 0.00 0.00 0.00 43 952.0
20260506033006 95 0 0.0 0.0 0.00 0.00 0.00 46 953.0
20260506031942 92 0 0.0 0.0 0.00 0.00 0.00 50 953.0
20260506030918 93 0 0.0 0.0 0.00 0.00 0.00 48 953.0
20260506025854 91 0 0.0 0.0 0.00 0.00 0.00 50 953.0
20260506024829 91 0 0.0 0.0 0.00 0.00 0.00 50 953.0
20260506023805 90 0 0.0 0.0 0.00 0.00 0.00 53 953.0
20260506022741 89 0 0.0 0.0 0.00 0.00 0.00 58 953.0
20260506021717 87 0 0.0 0.0 0.00 0.00 0.00 61 953.0
20260506020652 87 0 0.0 0.0 0.00 0.00 0.00 64 953.0
20260506015628 88 0 0.0 0.0 0.00 0.00 0.00 65 953.0
20260506014604 87 0 0.0 0.0 0.00 0.00 0.00 66 953.0
20260506013540 87 0 0.0 0.0 0.00 0.00 0.00 69 953.0
20260506012515 85 0 0.0 0.0 0.00 0.00 0.00 74 953.0
20260506011451 84 0 0.0 0.0 0.00 0.00 0.00 75 953.0
20260506010427 82 0 0.0 0.0 0.00 0.00 0.00 79 952.0
20260506005403 81 0 0.0 0.0 0.00 0.00 0.00 80 952.0
20260506004339 80 0 0.0 0.0 0.00 0.00 0.00 80 952.0
20260506003315 80 0 0.0 0.0 0.00 0.00 0.00 80 952.0
20260506002251 80 0 0.0 0.0 0.00 0.00 0.00 80 952.0
20260506001227 79 0 0.0 0.0 0.00 0.00 0.00 80 952.0
20260506000204 79 0 0.0 0.0 0.00 0.00 0.00 82 952.0
20260505235138 79 0 0.0 0.0 0.00 0.00 0.00 81 952.0
20260505234114 79 0 0.0 0.0 0.00 0.00 0.00 81 952.0
20260505233050 79 0 0.0 0.0 0.00 0.00 0.00 83 952.0
20260505232026 77 0 0.0 0.0 0.00 0.00 0.00 87 952.0
20260505231002 76 0 0.0 0.0 0.00 0.00 0.00 90 952.0
20260505225938 78 0 0.0 0.0 0.00 0.00 0.00 84 951.0
20260505224907 78 0 0.0 0.0 0.00 0.00 0.00 84 951.0
20260505223835 77 0 0.0 0.0 0.00 0.00 0.00 87 951.0
20260505222811 76 0 0.0 0.0 0.00 0.00 0.00 90 951.0
20260505221746 76 0 0.0 0.0 0.00 0.00 0.00 89 951.0
20260505220722 77 0 0.0 0.0 0.00 0.00 0.00 90 951.0
20260505215658 77 0 0.0 0.0 0.00 0.00 0.00 86 951.0
20260505214634 78 0 0.0 0.0 0.00 0.00 0.00 82 951.0
20260505213610 77 0 0.0 0.0 0.00 0.00 0.00 82 951.0
20260505212546 77 0 0.0 0.0 0.00 0.00 0.00 80 951.0
20260505211522 77 0 0.0 0.0 0.00 0.00 0.00 81 951.0
20260505210458 77 0 0.0 0.0 0.00 0.00 0.00 82 951.0
20260505205434 77 0 0.0 0.0 0.00 0.00 0.00 81 951.0
20260505204409 76 0 0.0 0.0 0.00 0.00 0.00 82 951.0
20260505203345 77 0 0.0 0.0 0.00 0.00 0.00 81 951.0
20260505202321 77 0 0.0 0.0 0.00 0.00 0.00 81 951.0
20260505201257 78 0 0.0 0.0 0.00 0.00 0.00 80 951.0
20260505200233 77 0 0.0 0.0 0.00 0.00 0.00 82 951.0
20260505195209 77 0 0.0 0.0 0.00 0.00 0.00 82 951.0
20260505194144 77 0 0.0 0.0 0.00 0.00 0.00 82 951.0
20260505193120 77 0 0.0 0.0 0.00 0.00 0.00 83 951.0
20260505192056 76 0 0.0 0.0 0.00 0.00 0.00 85 951.0
20260505191032 76 0 0.0 0.0 0.00 0.00 0.00 87 951.0
20260505190008 75 0 0.0 0.0 0.00 0.00 0.00 89 951.0
20260505184944 75 0 0.0 0.0 0.00 0.00 0.00 93 951.0
20260505183919 75 0 0.0 0.0 0.00 0.00 0.00 92 951.0
20260505182855 75 0 0.0 0.0 0.00 0.00 0.00 91 951.0
20260505181831 75 0 0.0 0.0 0.00 0.00 0.00 85 952.0
20260505180807 75 0 0.0 0.0 0.00 0.00 0.00 85 952.0
20260505175743 75 0 0.0 0.0 0.00 0.00 0.00 85 952.0
20260505174719 75 0 0.0 0.0 0.00 0.00 0.00 93 952.0
20260505173655 75 0 0.0 0.0 0.00 0.00 0.00 92 952.0
20260505172630 76 0 0.0 0.0 0.00 0.00 0.00 95 952.0
20260505171606 76 0 0.0 0.0 0.00 0.00 0.00 99 953.0
20260505170542 77 0 0.0 0.0 0.00 0.00 0.00 95 953.0
20260505165518 77 0 0.0 0.0 0.00 0.00 0.00 95 953.0
20260505164454 80 0 0.0 0.0 0.00 0.00 0.00 79 953.0
20260505163430 84 0 0.0 0.0 0.00 0.00 0.00 64 953.0
20260505162405 83 0 0.0 0.0 0.00 0.00 0.00 64 953.0
20260505161341 82 0 0.0 0.0 0.00 0.00 0.00 66 953.0
20260505160317 82 0 0.0 0.0 0.00 0.00 0.00 67 953.0
20260505153204 84 0 0.0 0.0 0.00 0.00 0.00 64 953.0
20260505152140 84 0 0.0 0.0 0.00 0.00 0.00 63 953.0
20260505151116 84 0 0.0 0.0 0.00 0.00 0.00 64 952.0
20260505124527 85 0 0.0 0.0 0.00 0.00 0.00 63 950.0
20260505123503 85 0 0.0 0.0 0.00 0.00 0.00 62 950.0
20260505122434 85 0 0.0 0.0 0.00 0.00 0.00 61 950.0
20260505121408 85 0 0.0 0.0 0.00 0.00 0.00 61 950.0
20260505120344 86 0 0.0 0.0 0.00 0.00 0.00 60 949.0
20260505115319 87 0 0.0 0.0 0.00 0.00 0.00 58 949.0
20260505114255 87 0 0.0 0.0 0.00 0.00 0.00 57 949.0
20260505113231 87 0 0.0 0.0 0.00 0.00 0.00 56 949.0
20260505112207 87 0 0.0 0.0 0.00 0.00 0.00 55 949.0
20260505111143 88 0 0.0 0.0 0.00 0.00 0.00 53 949.0
20260505110119 88 0 0.0 0.0 0.00 0.00 0.00 53 949.0
20260505101942 91 0 0.0 0.0 0.00 0.00 0.00 50 949.0
20260505100918 90 0 0.0 0.0 0.00 0.00 0.00 50 949.0
20260505095854 90 0 0.0 0.0 0.00 0.00 0.00 50 949.0
20260505094830 91 0 0.0 0.0 0.00 0.00 0.00 50 949.0
20260505093805 91 0 0.0 0.0 0.00 0.00 0.00 48 949.0
20260505092741 91 0 0.0 0.0 0.00 0.00 0.00 49 949.0
20260505091717 92 0 0.0 0.0 0.00 0.00 0.00 48 949.0
20260505090653 91 0 0.0 0.0 0.00 0.00 0.00 48 949.0
20260505085629 91 0 0.0 0.0 0.00 0.00 0.00 48 949.0
20260505084604 91 0 0.0 0.0 0.00 0.00 0.00 48 949.0
20260505083540 91 0 0.0 0.0 0.00 0.00 0.00 48 949.0
20260505082516 90 0 0.0 0.0 0.00 0.00 0.00 49 950.0
20260505081452 91 0 0.0 0.0 0.00 0.00 0.00 49 950.0
20260505080428 91 0 0.0 0.0 0.00 0.00 0.00 48 950.0
20260505075401 92 0 0.0 0.0 0.00 0.00 0.00 47 950.0